Location: Grassland Mountain Observatory
(35.7543°N, 82.8038°W)
Time: 06:00:47
(UTC-05:00)

Envisat - Pass Details

Date: 07 December 2021
Orbit: 764 x 766 km, 98.2° (Epoch: 20 January)

Event Time Altitude Azimuth Distance (km) Brightness Sun altitude
Rises 05:23:08 0° 13° (NNE) 3,235 6.3 -24.7°
Reaches altitude 10° 05:25:27 10° 15° (NNE) 2,305 5.5 -24.2°
Maximum altitude 05:30:32 79° 102° (ESE) 780 3.0 -23.2°
Drops below altitude 10° 05:35:35 10° 190° (S) 2,289 5.5 -22.2°
Sets 05:37:53 0° 191° (S) 3,210 6.3 -21.8°
